Location: Newark
(35.6799°N, 139.7636°E)
Time: 16:54:31
(UTC+00:00)

Explorer 7 - Pass Details

Date: 12 December 2019
Orbit: 485 x 679 km, 50.3° (Epoch: 22 January)

Event Time Altitude Azimuth Distance (km) Brightness Sun altitude
Rises 08:40:42 0° 300° (WNW) 3,025 11.2 -14.4°
Reaches altitude 10° 08:44:11 10° 326° (NW) 2,118 10.0 -15.1°
Maximum altitude 08:46:48 14° 358° (N) 1,848 9.3 -15.6°
Enters shadow 08:48:33 12° 21° (NNE) 1,971 9.3 -15.9°
Drops below altitude 10° 08:49:24 10° 30° (NNE) 2,109 - -16.1°
Sets 08:52:51 0° 55° (NE) 3,003 - -16.8°
